M I D A S
Marine Information and Data Acquisition System
Tripno 1568 of the Zeeleeuw from 2008-09-17 07:01:29 to 2008-09-17 14:12:00
Back to CruiseResearch ActivitiesStationsMapUnderway DataData graphs

EquipmentUnitsComments
TimeDGPSUTC
LatitudeDGPSDM.mWGS84
LongitudeDGPSDM.mWGS84
SpeedMeteo Stationm/sRelative wind speed
DirectionMeteo StationdegRelative wind direction
TemperatureMeteo Stationdeg CelciusAir temperature
PressureMeteo StationPaAtmospheric pressure
HumidityMeteo Station%Relative humidity
Missing or incorrect values are displayed as -999
Metereological data collected by the RV Zeeleeuw from 2008-09-17 07:01:29 to 2008-09-17 14:12:00
Time Latitude Longitude Speed Direction Temperature Pressure Humidity
2008-09-17 07:03 51°13.696 2°55.835 -999 -999 -999 -999 -999
2008-09-17 07:05 51°13.824 2°55.646 -999 -999 -999 -999 -999
2008-09-17 07:07 51°13.936 2°55.653 -999 -999 -999 -999 -999
2008-09-17 07:09 51°14.004 2°55.53 -999 -999 -999 -999 -999
2008-09-17 07:11 51°14.176 2°55.358 -999 -999 -999 -999 -999
2008-09-17 07:13 51°14.421 2°54.93 -999 -999 -999 -999 -999
2008-09-17 07:15 51°14.743 2°54.574 -999 -999 -999 -999 -999
2008-09-17 07:17 51°15.076 2°54.267 -999 -999 -999 -999 -999
2008-09-17 07:19 51°15.411 2°53.956 -999 -999 -999 -999 -999
2008-09-17 07:21 51°15.751 2°53.65 -999 -999 -999 -999 -999
2008-09-17 07:23 51°16.094 2°53.347 -999 -999 -999 -999 -999
2008-09-17 07:25 51°16.437 2°53.043 -999 -999 -999 -999 -999
2008-09-17 07:27 51°16.776 2°52.758 -999 -999 -999 -999 -999
2008-09-17 07:29 51°17.116 2°52.483 -999 -999 -999 -999 -999
2008-09-17 07:31 51°17.438 2°52.162 -999 -999 -999 -999 -999
2008-09-17 07:33 51°17.725 2°51.747 -999 -999 -999 -999 -999
2008-09-17 07:35 51°18.018 2°51.339 -999 -999 -999 -999 -999
2008-09-17 07:37 51°18.314 2°50.924 -999 -999 -999 -999 -999
2008-09-17 07:39 51°18.612 2°50.509 -999 -999 -999 -999 -999
2008-09-17 07:41 51°18.916 2°50.096 -999 -999 -999 -999 -999
2008-09-17 07:43 51°19.219 2°49.673 -999 -999 -999 -999 -999
2008-09-17 07:45 51°19.522 2°49.241 -999 -999 -999 -999 -999
2008-09-17 07:47 51°19.82 2°48.788 -999 -999 -999 -999 -999
2008-09-17 07:49 51°20.139 2°48.383 -999 -999 -999 -999 -999
2008-09-17 07:51 51°20.5 2°48.143 -999 -999 -999 -999 -999
2008-09-17 07:53 51°20.863 2°47.909 -999 -999 -999 -999 -999
2008-09-17 07:55 51°21.201 2°47.553 -999 -999 -999 -999 -999
2008-09-17 07:57 51°21.521 2°47.116 -999 -999 -999 -999 -999
2008-09-17 07:59 51°21.829 2°46.644 -999 -999 -999 -999 -999
2008-09-17 08:01 51°22.125 2°46.197 -999 -999 -999 -999 -999
2008-09-17 08:03 51°22.418 2°45.766 -999 -999 -999 -999 -999
2008-09-17 08:05 51°22.707 2°45.321 -999 -999 -999 -999 -999
2008-09-17 08:07 51°22.977 2°44.833 -999 -999 -999 -999 -999
2008-09-17 08:09 51°23.252 2°44.348 -999 -999 -999 -999 -999
2008-09-17 08:11 51°23.52 2°43.855 -999 -999 -999 -999 -999
2008-09-17 08:13 51°23.795 2°43.374 -999 -999 -999 -999 -999
2008-09-17 08:15 51°24.069 2°42.891 -999 -999 -999 -999 -999
2008-09-17 08:17 51°24.342 2°42.408 -999 -999 -999 -999 -999
2008-09-17 08:19 51°24.623 2°41.945 -999 -999 -999 -999 -999
2008-09-17 08:21 51°24.899 2°41.49 -999 -999 -999 -999 -999
2008-09-17 08:23 51°25.176 2°41.031 -999 -999 -999 -999 -999
2008-09-17 08:25 51°25.453 2°40.566 -999 -999 -999 -999 -999
2008-09-17 08:27 51°25.741 2°40.126 -999 -999 -999 -999 -999
2008-09-17 08:29 51°26.029 2°39.683 -999 -999 -999 -999 -999
2008-09-17 08:31 51°26.321 2°39.236 -999 -999 -999 -999 -999
2008-09-17 08:33 51°26.604 2°38.79 -999 -999 -999 -999 -999
2008-09-17 08:35 51°26.889 2°38.36 -999 -999 -999 -999 -999
2008-09-17 08:37 51°27.168 2°37.918 -999 -999 -999 -999 -999
2008-09-17 08:39 51°27.448 2°37.48 -999 -999 -999 -999 -999
2008-09-17 08:41 51°27.73 2°37.044 -999 -999 -999 -999 -999
2008-09-17 08:43 51°28.008 2°36.595 -999 -999 -999 -999 -999
2008-09-17 08:45 51°28.285 2°36.144 -999 -999 -999 -999 -999
2008-09-17 08:47 51°28.62 2°36.026 -999 -999 -999 -999 -999
2008-09-17 08:49 51°28.953 2°36.146 -999 -999 -999 -999 -999
2008-09-17 08:51 51°29.289 2°36.251 -999 -999 -999 -999 -999
2008-09-17 08:53 51°29.629 2°36.352 -999 -999 -999 -999 -999
2008-09-17 08:55 51°29.969 2°36.469 -999 -999 -999 -999 -999
2008-09-17 08:57 51°30.311 2°36.58 -999 -999 -999 -999 -999
2008-09-17 08:59 51°30.654 2°36.696 -999 -999 -999 -999 -999
2008-09-17 09:01 51°30.996 2°36.814 -999 -999 -999 -999 -999
2008-09-17 09:03 51°31.339 2°36.932 -999 -999 -999 -999 -999
2008-09-17 09:05 51°31.671 2°37.098 -999 -999 -999 -999 -999
2008-09-17 09:07 51°32.001 2°37.27 -999 -999 -999 -999 -999
2008-09-17 09:09 51°32.335 2°37.431 -999 -999 -999 -999 -999
2008-09-17 09:11 51°32.667 2°37.596 -999 -999 -999 -999 -999
2008-09-17 09:13 51°32.998 2°37.77 -999 -999 -999 -999 -999
2008-09-17 09:15 51°33.33 2°37.921 -999 -999 -999 -999 -999
2008-09-17 09:17 51°33.66 2°38.072 -999 -999 -999 -999 -999
2008-09-17 09:19 51°33.984 2°38.255 -999 -999 -999 -999 -999
2008-09-17 09:21 51°34.309 2°38.446 -999 -999 -999 -999 -999
2008-09-17 09:23 51°34.642 2°38.601 -999 -999 -999 -999 -999
2008-09-17 09:25 51°34.976 2°38.764 -999 -999 -999 -999 -999
2008-09-17 09:27 51°35.307 2°38.932 -999 -999 -999 -999 -999
2008-09-17 09:29 51°35.64 2°39.085 -999 -999 -999 -999 -999
2008-09-17 09:31 51°35.977 2°39.24 -999 -999 -999 -999 -999
2008-09-17 09:33 51°36.312 2°39.4 -999 -999 -999 -999 -999
2008-09-17 09:35 51°36.644 2°39.57 -999 -999 -999 -999 -999
2008-09-17 09:37 51°36.979 2°39.737 -999 -999 -999 -999 -999
2008-09-17 09:39 51°37.315 2°39.891 -999 -999 -999 -999 -999
2008-09-17 09:41 51°37.651 2°40.049 -999 -999 -999 -999 -999
2008-09-17 09:43 51°37.955 2°40.277 -999 -999 -999 -999 -999
2008-09-17 09:45 51°38.116 2°40.752 -999 -999 -999 -999 -999
2008-09-17 09:47 51°38.084 2°41.321 -999 -999 -999 -999 -999
2008-09-17 09:49 51°38.017 2°41.874 -999 -999 -999 -999 -999
2008-09-17 09:51 51°37.61 2°41.865 -999 -999 -999 -999 -999
2008-09-17 09:53 51°37.161 2°41.664 -999 -999 -999 -999 -999
2008-09-17 09:55 51°36.711 2°41.471 -999 -999 -999 -999 -999
2008-09-17 09:57 51°36.268 2°41.26 -999 -999 -999 -999 -999
2008-09-17 09:59 51°35.822 2°41.072 -999 -999 -999 -999 -999
2008-09-17 10:01 51°35.382 2°40.886 -999 -999 -999 -999 -999
2008-09-17 10:03 51°34.943 2°40.691 -999 -999 -999 -999 -999
2008-09-17 10:05 51°34.502 2°40.498 -999 -999 -999 -999 -999
2008-09-17 10:07 51°34.053 2°40.288 -999 -999 -999 -999 -999
2008-09-17 10:09 51°33.597 2°40.073 -999 -999 -999 -999 -999
2008-09-17 10:11 51°33.138 2°39.868 -999 -999 -999 -999 -999
2008-09-17 10:13 51°32.682 2°39.648 -999 -999 -999 -999 -999
2008-09-17 10:15 51°32.223 2°39.427 -999 -999 -999 -999 -999
2008-09-17 10:17 51°31.769 2°39.211 -999 -999 -999 -999 -999
2008-09-17 10:19 51°31.317 2°38.987 -999 -999 -999 -999 -999
2008-09-17 10:21 51°30.869 2°38.754 -999 -999 -999 -999 -999
2008-09-17 10:23 51°30.418 2°38.54 -999 -999 -999 -999 -999
2008-09-17 10:25 51°30.156 2°38.919 -999 -999 -999 -999 -999
2008-09-17 10:27 51°30.247 2°39.475 -999 -999 -999 -999 -999
2008-09-17 10:29 51°30.319 2°40.046 -999 -999 -999 -999 -999
2008-09-17 10:31 51°30.402 2°40.622 -999 -999 -999 -999 -999
2008-09-17 10:33 51°30.483 2°41.198 -999 -999 -999 -999 -999
2008-09-17 10:35 51°30.777 2°41.472 -999 -999 -999 -999 -999
2008-09-17 10:37 51°31.105 2°41.712 -999 -999 -999 -999 -999
2008-09-17 10:39 51°31.437 2°41.944 -999 -999 -999 -999 -999
2008-09-17 10:41 51°31.762 2°42.196 -999 -999 -999 -999 -999
2008-09-17 10:43 51°32.093 2°42.437 -999 -999 -999 -999 -999
2008-09-17 10:45 51°32.435 2°42.643 -999 -999 -999 -999 -999
2008-09-17 10:47 51°32.777 2°42.843 -999 -999 -999 -999 -999
2008-09-17 10:49 51°33.121 2°43.034 -999 -999 -999 -999 -999
2008-09-17 10:51 51°33.466 2°43.218 -999 -999 -999 -999 -999
2008-09-17 10:53 51°33.805 2°43.428 -999 -999 -999 -999 -999
2008-09-17 10:55 51°34.15 2°43.623 -999 -999 -999 -999 -999
2008-09-17 10:57 51°34.494 2°43.822 -999 -999 -999 -999 -999
2008-09-17 10:59 51°34.842 2°44 -999 -999 -999 -999 -999
2008-09-17 11:01 51°35.192 2°44.174 -999 -999 -999 -999 -999
2008-09-17 11:03 51°35.542 2°44.358 -999 -999 -999 -999 -999
2008-09-17 11:05 51°35.892 2°44.556 -999 -999 -999 -999 -999
2008-09-17 11:07 51°36.248 2°44.725 -999 -999 -999 -999 -999
2008-09-17 11:09 51°36.595 2°44.913 -999 -999 -999 -999 -999
2008-09-17 11:11 51°36.933 2°45.14 -999 -999 -999 -999 -999
2008-09-17 11:13 51°37.274 2°45.361 -999 -999 -999 -999 -999
2008-09-17 11:15 51°37.622 2°45.547 -999 -999 -999 -999 -999
2008-09-17 11:17 51°37.971 2°45.756 -999 -999 -999 -999 -999
2008-09-17 11:19 51°38.317 2°45.952 -999 -999 -999 -999 -999
2008-09-17 11:21 51°38.671 2°46.147 -999 -999 -999 -999 -999
2008-09-17 11:23 51°39.016 2°46.365 -999 -999 -999 -999 -999
2008-09-17 11:25 51°39.361 2°46.584 -999 -999 -999 -999 -999
2008-09-17 11:27 51°39.705 2°46.811 -999 -999 -999 -999 -999
2008-09-17 11:29 51°40.047 2°47.041 -999 -999 -999 -999 -999
2008-09-17 11:31 51°40.389 2°47.287 -999 -999 -999 -999 -999
2008-09-17 11:33 51°40.735 2°47.528 -999 -999 -999 -999 -999
2008-09-17 11:35 51°41.088 2°47.743 -999 -999 -999 -999 -999
2008-09-17 11:37 51°41.442 2°47.955 -999 -999 -999 -999 -999
2008-09-17 11:39 51°41.725 2°48.313 -999 -999 -999 -999 -999
2008-09-17 11:41 51°41.596 2°48.895 -999 -999 -999 -999 -999
2008-09-17 11:43 51°41.275 2°49.321 -999 -999 -999 -999 -999
2008-09-17 11:45 51°40.851 2°49.332 -999 -999 -999 -999 -999
2008-09-17 11:47 51°40.436 2°49.14 -999 -999 -999 -999 -999
2008-09-17 11:49 51°40.014 2°48.948 -999 -999 -999 -999 -999
2008-09-17 11:51 51°39.603 2°48.741 -999 -999 -999 -999 -999
2008-09-17 11:53 51°39.192 2°48.541 -999 -999 -999 -999 -999
2008-09-17 11:55 51°38.777 2°48.346 -999 -999 -999 -999 -999
2008-09-17 11:57 51°38.373 2°48.147 -999 -999 -999 -999 -999
2008-09-17 11:59 51°37.972 2°47.925 -999 -999 -999 -999 -999
2008-09-17 13:01 51°26.575 2°45.849 -999 -999 -999 -999 -999
2008-09-17 13:03 51°26.225 2°46.103 -999 -999 -999 -999 -999
2008-09-17 13:05 51°25.869 2°46.337 -999 -999 -999 -999 -999
2008-09-17 13:07 51°25.519 2°46.601 -999 -999 -999 -999 -999
2008-09-17 13:09 51°25.168 2°46.859 -999 -999 -999 -999 -999
2008-09-17 13:11 51°24.817 2°47.109 -999 -999 -999 -999 -999
2008-09-17 13:13 51°24.465 2°47.36 -999 -999 -999 -999 -999
2008-09-17 13:15 51°24.122 2°47.626 -999 -999 -999 -999 -999
2008-09-17 13:17 51°23.774 2°47.88 -999 -999 -999 -999 -999
2008-09-17 13:19 51°23.416 2°48.101 -999 -999 -999 -999 -999
2008-09-17 13:21 51°23.056 2°48.318 -999 -999 -999 -999 -999
2008-09-17 13:23 51°22.702 2°48.541 -999 -999 -999 -999 -999
2008-09-17 13:25 51°22.35 2°48.774 -999 -999 -999 -999 -999
2008-09-17 13:27 51°21.989 2°49.014 -999 -999 -999 -999 -999
2008-09-17 13:29 51°21.628 2°49.254 -999 -999 -999 -999 -999
2008-09-17 13:31 51°21.269 2°49.494 -999 -999 -999 -999 -999
2008-09-17 13:33 51°20.924 2°49.741 -999 -999 -999 -999 -999
2008-09-17 13:35 51°20.576 2°49.99 -999 -999 -999 -999 -999
2008-09-17 13:37 51°20.228 2°50.243 -999 -999 -999 -999 -999
2008-09-17 13:39 51°19.874 2°50.471 -999 -999 -999 -999 -999
2008-09-17 13:41 51°19.517 2°50.697 -999 -999 -999 -999 -999
2008-09-17 13:43 51°19.157 2°50.916 -999 -999 -999 -999 -999
2008-09-17 13:45 51°18.8 2°51.137 -999 -999 -999 -999 -999
2008-09-17 13:47 51°18.459 2°51.403 -999 -999 -999 -999 -999
2008-09-17 13:49 51°18.115 2°51.652 -999 -999 -999 -999 -999
2008-09-17 13:51 51°17.77 2°51.899 -999 -999 -999 -999 -999
2008-09-17 13:53 51°17.433 2°52.164 -999 -999 -999 -999 -999
2008-09-17 13:55 51°17.096 2°52.45 -999 -999 -999 -999 -999
2008-09-17 13:57 51°16.758 2°52.734 -999 -999 -999 -999 -999
2008-09-17 13:59 51°16.42 2°53.036 -999 -999 -999 -999 -999
2008-09-17 14:01 51°16.076 2°53.324 -999 -999 -999 -999 -999
2008-09-17 14:03 51°15.738 2°53.639 -999 -999 -999 -999 -999
2008-09-17 14:05 51°15.4 2°53.953 -999 -999 -999 -999 -999
2008-09-17 14:07 51°15.07 2°54.275 -999 -999 -999 -999 -999
2008-09-17 14:09 51°14.742 2°54.621 -999 -999 -999 -999 -999
2008-09-17 14:11 51°14.423 2°54.985 -999 -999 -999 -999 -999